Location: Treviso
(45.6669°N, 12.2430°E)
Time: 11:43:03
(UTC+01:00)

ISS - Pass Details

Date: 23 March 2023
Orbit: 414 x 423 km, 51.6° (Epoch: 20 March)

Event Time Altitude Azimuth Distance (km) Brightness Sun altitude
Rises 21:04:58 0° 295° (WNW) 2,358 1.3 -26.8°
Reaches altitude 10° 21:07:12 10° 305° (NW) 1,493 0.0 -27.2°
Enters shadow 21:08:40 21° 322° (NW) 995 -1.2 -27.4°
